Location: Unspecified
(43.3830°N, 0.0000°E)
Time: 05:59:24
(UTC+00:00)

Transit 2A - Pass Details

Date: 26 June 2019
Orbit: 594 x 965 km, 66.7° (Epoch: 15 July)

Event Time Altitude Azimuth Distance (km) Brightness Sun altitude
Exits shadow 21:40:23 18° 116° (ESE) 2,172 7.8 -15.7°
Maximum altitude 21:41:22 19° 104° (ESE) 2,137 7.9 -15.8°
Drops below altitude 10° 21:45:32 10° 63° (ENE) 2,686 8.8 -16.2°
Sets 21:48:49 0° 46° (NE) 3,604 9.6 -16.5°
